Tracking 19903 objects as of 16-Oct-2019
HD Live streaming from Space Station
objects crossing your sky now

SL-8 R/B

Track SL-8 R/B now!
10-day predictions


NORAD ID: 13128
Int'l Code: 1982-030B
Perigee: 965.4 km
Apogee: 1,006.8 km
Inclination: 82.9 °
Period: 104.7 minutes
Semi major axis: 7357 km
RCS: 4.5308 m2 (large)
Launch date: April 8, 1982
Source: Commonwealth of Independent States (former USSR) (CIS)
Launch site: PLESETSK MISSILE AND SPACE COMPLEX (PKMTR)

Note: This is a ROCKET BODY
aabbcc
Your satellite tracking list
Your tracking list is empty




NASA's NSSDC Master Catalog

Two Line Element Set (TLE):
1 13128U 82030B   19288.65940113 +.00000142 +00000-0 +13127-3 0  9999
2 13128 082.9224 130.7549 0028154 204.8609 219.8385 13.75757195882376
Source of the keplerian elements: AFSPC